| time (UTC) | temp F | wind direction | speed MPH | gust MPH | rain 1hr in | rain 24hr in | rain mn in | humidity % | barometer mb |
| 20260904181505 | 87 | 0 | 0.0 | 0.0 | 0.00 | 0.00 | 0.00 | 73 | 1015.5 |
| 20260904180504 | 88 | 0 | 0.0 | 0.0 | 0.00 | 0.00 | 0.00 | 72 | 1015.7 |
| 20260904180004 | 88 | 0 | 0.0 | 0.0 | 0.00 | 0.00 | 0.00 | 71 | 1015.7 |
| 20260904175505 | 88 | 0 | 0.0 | 0.0 | 0.00 | 0.00 | 0.00 | 71 | 1015.7 |
| 20260904174504 | 87 | 0 | 0.0 | 0.0 | 0.00 | 0.00 | 0.00 | 72 | 1015.9 |
| 20260904174004 | 87 | 0 | 0.0 | 0.0 | 0.00 | 0.00 | 0.00 | 73 | 1015.9 |
| 20260904173505 | 87 | 0 | 0.0 | 0.0 | 0.00 | 0.00 | 0.00 | 72 | 1016.0 |
| 20260904173004 | 87 | 0 | 0.0 | 0.0 | 0.00 | 0.00 | 0.00 | 74 | 1015.9 |
| 20260904172004 | 86 | 0 | 0.0 | 0.0 | 0.00 | 0.00 | 0.00 | 76 | 1016.0 |
| 20260904171505 | 86 | 0 | 0.0 | 0.0 | 0.00 | 0.00 | 0.00 | 76 | 1016.0 |
| 20260904171004 | 86 | 0 | 0.0 | 0.0 | 0.00 | 0.00 | 0.00 | 76 | 1016.1 |
| 20260904170504 | 86 | 0 | 0.0 | 0.0 | 0.00 | 0.00 | 0.00 | 76 | 1016.1 |
| 20260904170005 | 85 | 0 | 0.0 | 0.0 | 0.00 | 0.00 | 0.00 | 76 | 1016.2 |
| 20260904165504 | 85 | 0 | 0.0 | 0.0 | 0.00 | 0.00 | 0.00 | 76 | 1016.1 |
| 20260904165004 | 85 | 0 | 0.0 | 0.0 | 0.00 | 0.00 | 0.00 | 78 | 1016.1 |
| 20260904164504 | 85 | 0 | 0.0 | 0.0 | 0.00 | 0.00 | 0.00 | 78 | 1016.0 |
| 20260904164005 | 84 | 0 | 0.0 | 0.0 | 0.00 | 0.00 | 0.00 | 79 | 1015.9 |
| 20260904163504 | 84 | 0 | 0.0 | 0.0 | 0.00 | 0.00 | 0.00 | 79 | 1016.0 |
| 20260904163004 | 84 | 0 | 0.0 | 0.0 | 0.00 | 0.00 | 0.00 | 79 | 1016.0 |
| 20260904162504 | 84 | 0 | 0.0 | 0.0 | 0.00 | 0.00 | 0.00 | 79 | 1016.0 |
| 20260904162005 | 84 | 0 | 0.0 | 0.0 | 0.00 | 0.00 | 0.00 | 80 | 1016.0 |
| 20260904161504 | 84 | 0 | 0.0 | 0.0 | 0.00 | 0.00 | 0.00 | 80 | 1016.0 |
| 20260904161004 | 83 | 0 | 0.0 | 0.0 | 0.00 | 0.00 | 0.00 | 82 | 1015.9 |
| 20260904160005 | 83 | 0 | 0.0 | 0.0 | 0.00 | 0.00 | 0.00 | 83 | 1015.9 |
| 20260904155504 | 82 | 0 | 0.0 | 0.0 | 0.00 | 0.00 | 0.00 | 84 | 1015.9 |
| 20260904155004 | 82 | 0 | 0.0 | 0.0 | 0.00 | 0.00 | 0.00 | 84 | 1015.8 |
| 20260904154504 | 82 | 0 | 0.0 | 0.0 | 0.00 | 0.00 | 0.00 | 84 | 1015.8 |
| 20260904154005 | 82 | 0 | 0.0 | 0.0 | 0.00 | 0.00 | 0.00 | 85 | 1015.8 |
| 20260904153504 | 82 | 0 | 0.0 | 0.0 | 0.00 | 0.00 | 0.00 | 85 | 1015.9 |
| 20260904153004 | 82 | 0 | 0.0 | 0.0 | 0.00 | 0.00 | 0.00 | 85 | 1015.7 |
| 20260904152504 | 82 | 0 | 0.0 | 0.0 | 0.00 | 0.00 | 0.00 | 86 | 1015.7 |
| 20260904151504 | 81 | 0 | 0.0 | 0.0 | 0.00 | 0.00 | 0.00 | 86 | 1015.6 |
| 20260904151004 | 81 | 0 | 0.0 | 0.0 | 0.00 | 0.00 | 0.00 | 86 | 1015.7 |
| 20260904150504 | 81 | 0 | 0.0 | 0.0 | 0.00 | 0.00 | 0.00 | 86 | 1015.6 |
| 20260904150005 | 81 | 0 | 0.0 | 0.0 | 0.00 | 0.00 | 0.00 | 87 | 1015.6 |
| 20260904145504 | 81 | 0 | 0.0 | 0.0 | 0.00 | 0.00 | 0.00 | 87 | 1015.6 |
| 20260904145004 | 80 | 0 | 0.0 | 0.0 | 0.00 | 0.00 | 0.00 | 88 | 1015.6 |
| 20260904144504 | 80 | 0 | 0.0 | 0.0 | 0.00 | 0.00 | 0.00 | 88 | 1015.6 |
| 20260904143504 | 80 | 0 | 0.0 | 0.0 | 0.00 | 0.00 | 0.00 | 88 | 1015.6 |
| 20260904143004 | 80 | 0 | 0.0 | 0.0 | 0.00 | 0.00 | 0.00 | 88 | 1015.6 |
| 20260904142504 | 80 | 0 | 0.0 | 0.0 | 0.00 | 0.00 | 0.00 | 89 | 1015.6 |
| 20260904141504 | 79 | 0 | 0.0 | 0.0 | 0.00 | 0.00 | 0.00 | 89 | 1015.3 |
| 20260904141004 | 79 | 0 | 0.0 | 0.0 | 0.00 | 0.00 | 0.00 | 89 | 1015.4 |
| 20260904140004 | 79 | 193 | 1.0 | 5.0 | 0.00 | 0.00 | 0.00 | 89 | 1015.4 |
| 20260904134004 | 79 | 145 | 1.0 | 4.0 | 0.00 | 0.00 | 0.00 | 90 | 1015.4 |
| 20260904133505 | 79 | 135 | 1.0 | 4.0 | 0.00 | 0.00 | 0.00 | 90 | 1015.5 |
| 20260904133004 | 79 | 0 | 0.0 | 3.0 | 0.00 | 0.00 | 0.00 | 90 | 1015.6 |
| 20260904132504 | 79 | 0 | 0.0 | 2.0 | 0.00 | 0.00 | 0.00 | 90 | 1015.5 |
| 20260904132005 | 79 | 0 | 0.0 | 3.0 | 0.00 | 0.00 | 0.00 | 90 | 1015.5 |
| 20260904131504 | 79 | 0 | 0.0 | 3.0 | 0.00 | 0.00 | 0.00 | 90 | 1015.4 |
| 20260904130504 | 79 | 0 | 0.0 | 1.0 | 0.00 | 0.00 | 0.00 | 90 | 1015.5 |
| 20260904130005 | 79 | 0 | 0.0 | 0.0 | 0.00 | 0.00 | 0.00 | 90 | 1015.4 |
| 20260904125504 | 79 | 0 | 0.0 | 0.0 | 0.00 | 0.00 | 0.00 | 90 | 1015.4 |
| 20260904125004 | 79 | 0 | 0.0 | 1.0 | 0.00 | 0.00 | 0.00 | 90 | 1015.4 |
| 20260904124504 | 79 | 0 | 0.0 | 3.0 | 0.00 | 0.00 | 0.00 | 90 | 1015.4 |
| 20260904124005 | 79 | 0 | 0.0 | 3.0 | 0.00 | 0.00 | 0.00 | 90 | 1015.4 |
| 20260904123504 | 79 | 0 | 0.0 | 2.0 | 0.00 | 0.00 | 0.00 | 90 | 1015.4 |
| 20260904122005 | 79 | 0 | 0.0 | 2.0 | 0.00 | 0.00 | 0.00 | 89 | 1014.9 |
| 20260904121504 | 79 | 0 | 0.0 | 3.0 | 0.00 | 0.00 | 0.00 | 89 | 1014.9 |
| 20260904121004 | 79 | 0 | 0.0 | 3.0 | 0.00 | 0.00 | 0.00 | 89 | 1014.8 |
| 20260904120504 | 79 | 0 | 0.0 | 3.0 | 0.00 | 0.00 | 0.00 | 89 | 1014.7 |
| 20260904120005 | 79 | 0 | 0.0 | 2.0 | 0.00 | 0.00 | 0.00 | 89 | 1014.6 |
| 20260904115004 | 79 | 124 | 1.0 | 4.0 | 0.00 | 0.00 | 0.00 | 89 | 1014.6 |
| 20260904114505 | 79 | 0 | 0.0 | 4.0 | 0.00 | 0.00 | 0.00 | 89 | 1014.5 |
| 20260904114004 | 79 | 0 | 0.0 | 5.0 | 0.00 | 0.00 | 0.00 | 89 | 1014.4 |
| 20260904113504 | 79 | 127 | 1.0 | 5.0 | 0.00 | 0.00 | 0.00 | 89 | 1014.4 |
| 20260904113004 | 79 | 153 | 1.0 | 6.0 | 0.00 | 0.00 | 0.00 | 89 | 1014.4 |
| 20260904112505 | 80 | 0 | 0.0 | 6.0 | 0.00 | 0.00 | 0.00 | 88 | 1014.3 |
| 20260904112004 | 80 | 0 | 0.0 | 4.0 | 0.00 | 0.00 | 0.00 | 88 | 1014.2 |
| 20260904111504 | 80 | 0 | 0.0 | 4.0 | 0.00 | 0.00 | 0.00 | 88 | 1014.2 |
| 20260904111004 | 80 | 0 | 0.0 | 1.0 | 0.00 | 0.00 | 0.00 | 88 | 1014.2 |
| 20260904110504 | 80 | 0 | 0.0 | 5.0 | 0.00 | 0.00 | 0.00 | 88 | 1014.1 |
| 20260904110004 | 80 | 0 | 0.0 | 5.0 | 0.00 | 0.00 | 0.00 | 88 | 1014.1 |
| 20260904105504 | 80 | 206 | 1.0 | 3.0 | 0.00 | 0.00 | 0.00 | 88 | 1014.1 |
| 20260904105004 | 80 | 208 | 1.0 | 4.0 | 0.00 | 0.00 | 0.00 | 88 | 1014.2 |
| 20260904104504 | 79 | 209 | 1.0 | 4.0 | 0.00 | 0.00 | 0.00 | 88 | 1014.0 |
| 20260904104004 | 79 | 209 | 1.0 | 4.0 | 0.00 | 0.00 | 0.00 | 88 | 1014.0 |
| 20260904103504 | 79 | 0 | 0.0 | 4.0 | 0.00 | 0.00 | 0.00 | 88 | 1014.0 |
| 20260904103004 | 79 | 0 | 0.0 | 4.0 | 0.00 | 0.00 | 0.00 | 88 | 1013.9 |
| 20260904102504 | 80 | 206 | 1.0 | 4.0 | 0.00 | 0.00 | 0.00 | 88 | 1013.9 |
| 20260904101504 | 80 | 198 | 1.0 | 4.0 | 0.00 | 0.00 | 0.00 | 88 | 1013.8 |
| 20260904101005 | 80 | 194 | 1.0 | 3.0 | 0.00 | 0.00 | 0.00 | 88 | 1013.8 |
| 20260904100504 | 80 | 0 | 0.0 | 3.0 | 0.00 | 0.00 | 0.00 | 88 | 1013.8 |
| 20260904100004 | 79 | 0 | 0.0 | 2.0 | 0.00 | 0.00 | 0.00 | 88 | 1013.9 |
| 20260904095504 | 80 | 0 | 0.0 | 2.0 | 0.00 | 0.00 | 0.00 | 88 | 1013.8 |
| 20260904095005 | 80 | 0 | 0.0 | 5.0 | 0.00 | 0.00 | 0.00 | 88 | 1013.7 |
| 20260904094504 | 80 | 0 | 0.0 | 5.0 | 0.00 | 0.00 | 0.00 | 88 | 1013.6 |
| 20260904094004 | 80 | 0 | 0.0 | 4.0 | 0.00 | 0.00 | 0.00 | 88 | 1013.7 |
| 20260904093505 | 80 | 0 | 0.0 | 3.0 | 0.00 | 0.00 | 0.00 | 88 | 1013.6 |
| 20260904093004 | 80 | 0 | 0.0 | 3.0 | 0.00 | 0.00 | 0.00 | 88 | 1013.8 |
| 20260904092504 | 80 | 0 | 0.0 | 2.0 | 0.00 | 0.00 | 0.00 | 88 | 1013.8 |
| 20260904092004 | 80 | 0 | 0.0 | 4.0 | 0.00 | 0.00 | 0.00 | 88 | 1013.7 |
| 20260904091504 | 80 | 0 | 0.0 | 4.0 | 0.00 | 0.00 | 0.00 | 88 | 1013.8 |
| 20260904090504 | 80 | 0 | 0.0 | 5.0 | 0.00 | 0.00 | 0.00 | 87 | 1013.7 |
| 20260904090004 | 80 | 189 | 1.0 | 6.0 | 0.00 | 0.00 | 0.00 | 87 | 1013.7 |
| 20260904085504 | 80 | 206 | 1.0 | 6.0 | 0.00 | 0.00 | 0.00 | 87 | 1013.7 |
| 20260904085004 | 80 | 211 | 1.0 | 4.0 | 0.00 | 0.00 | 0.00 | 87 | 1013.7 |
| 20260904084004 | 80 | 213 | 1.0 | 4.0 | 0.00 | 0.00 | 0.00 | 87 | 1013.8 |
| 20260904083504 | 80 | 213 | 1.0 | 5.0 | 0.00 | 0.00 | 0.00 | 87 | 1013.7 |
| 20260904083004 | 80 | 213 | 1.0 | 5.0 | 0.00 | 0.00 | 0.00 | 87 | 1013.7 |
| 20260904082504 | 80 | 206 | 1.0 | 5.0 | 0.00 | 0.00 | 0.00 | 87 | 1013.7 |
| 20260904082004 | 80 | 204 | 1.0 | 5.0 | 0.00 | 0.00 | 0.00 | 87 | 1013.7 |
| 20260904081504 | 80 | 216 | 1.0 | 5.0 | 0.00 | 0.00 | 0.00 | 87 | 1013.7 |
| 20260904081004 | 80 | 235 | 1.0 | 4.0 | 0.00 | 0.00 | 0.00 | 87 | 1013.8 |
| 20260904080504 | 80 | 244 | 1.0 | 4.0 | 0.00 | 0.00 | 0.00 | 87 | 1013.7 |
| 20260904080004 | 80 | 247 | 1.0 | 3.0 | 0.00 | 0.00 | 0.00 | 87 | 1013.7 |
| 20260904075504 | 80 | 245 | 1.0 | 3.0 | 0.00 | 0.00 | 0.00 | 87 | 1013.7 |
| 20260904075004 | 80 | 245 | 1.0 | 3.0 | 0.00 | 0.00 | 0.00 | 86 | 1013.8 |
| 20260904074505 | 80 | 245 | 1.0 | 3.0 | 0.00 | 0.00 | 0.00 | 86 | 1013.8 |
| 20260904073504 | 80 | 225 | 1.0 | 6.0 | 0.00 | 0.00 | 0.00 | 86 | 1013.8 |
| 20260904073004 | 80 | 227 | 1.0 | 4.0 | 0.00 | 0.00 | 0.00 | 86 | 1013.8 |
| 20260904072505 | 80 | 300 | 1.0 | 8.0 | 0.00 | 0.00 | 0.00 | 86 | 1013.8 |
| 20260904072004 | 80 | 262 | 1.0 | 8.0 | 0.00 | 0.00 | 0.00 | 86 | 1014.0 |
| 20260904071504 | 80 | 198 | 1.0 | 6.0 | 0.00 | 0.00 | 0.00 | 86 | 1014.1 |
| 20260904071004 | 80 | 218 | 1.0 | 6.0 | 0.00 | 0.00 | 0.00 | 85 | 1014.0 |
| 20260904070504 | 80 | 232 | 1.0 | 6.0 | 0.00 | 0.00 | 0.00 | 85 | 1014.1 |
| 20260904070004 | 80 | 222 | 1.0 | 6.0 | 0.00 | 0.00 | 0.00 | 85 | 1014.2 |
| 20260904065004 | 80 | 221 | 1.0 | 6.0 | 0.00 | 0.00 | 0.00 | 85 | 1014.2 |
| 20260904064504 | 80 | 229 | 1.0 | 8.0 | 0.00 | 0.00 | 0.00 | 85 | 1014.2 |
| 20260904064004 | 80 | 249 | 1.0 | 8.0 | 0.00 | 0.00 | 0.00 | 85 | 1014.3 |
| 20260904063504 | 80 | 243 | 1.0 | 5.0 | 0.00 | 0.00 | 0.00 | 84 | 1014.1 |
| 20260904062504 | 80 | 224 | 1.0 | 4.0 | 0.00 | 0.00 | 0.00 | 84 | 1014.0 |
| 20260904061504 | 80 | 239 | 1.0 | 6.0 | 0.00 | 0.00 | 0.00 | 84 | 1014.0 |
| 20260904061004 | 80 | 240 | 1.0 | 6.0 | 0.00 | 0.00 | 0.00 | 84 | 1014.0 |
| 20260904060504 | 80 | 217 | 1.0 | 7.0 | 0.00 | 0.00 | 0.00 | 84 | 1014.1 |
| 20260904055504 | 80 | 203 | 1.0 | 5.0 | 0.00 | 0.00 | 0.00 | 84 | 1014.2 |
| 20260904055004 | 80 | 177 | 1.0 | 6.0 | 0.00 | 0.00 | 0.00 | 84 | 1014.1 |
| 20260904054504 | 80 | 154 | 1.0 | 6.0 | 0.00 | 0.00 | 0.00 | 84 | 1014.0 |
| 20260904054004 | 80 | 156 | 1.0 | 5.0 | 0.00 | 0.00 | 0.00 | 84 | 1013.9 |
| 20260904053004 | 80 | 220 | 1.0 | 4.0 | 0.00 | 0.00 | 0.00 | 84 | 1014.0 |
| 20260904052504 | 80 | 219 | 1.0 | 6.0 | 0.00 | 0.00 | 0.00 | 84 | 1013.9 |
| 20260904052005 | 80 | 194 | 1.0 | 6.0 | 0.00 | 0.00 | 0.00 | 84 | 1013.8 |
| 20260904051504 | 80 | 176 | 1.0 | 6.0 | 0.00 | 0.00 | 0.00 | 84 | 1013.8 |
| 20260904050504 | 80 | 121 | 2.0 | 6.0 | 0.00 | 0.00 | 0.00 | 84 | 1013.7 |
| 20260904045004 | 80 | 149 | 1.0 | 6.0 | 0.00 | 0.00 | 0.00 | 84 | 1013.8 |
| 20260904044504 | 80 | 131 | 1.0 | 6.0 | 0.00 | 0.00 | 0.00 | 84 | 1013.9 |
| 20260904044004 | 80 | 112 | 1.0 | 7.0 | 0.00 | 0.00 | 0.00 | 84 | 1013.8 |
| 20260904043504 | 80 | 114 | 1.0 | 7.0 | 0.00 | 0.00 | 0.00 | 84 | 1013.8 |
| 20260904043004 | 80 | 109 | 1.0 | 3.0 | 0.00 | 0.00 | 0.00 | 84 | 1013.8 |
| 20260904042504 | 80 | 100 | 1.0 | 3.0 | 0.00 | 0.00 | 0.00 | 84 | 1013.8 |
| 20260904041004 | 80 | 110 | 1.0 | 6.0 | 0.00 | 0.00 | 0.00 | 84 | 1013.9 |
| 20260904040004 | 80 | 127 | 1.0 | 5.0 | 0.00 | 0.00 | 0.00 | 84 | 1013.8 |
| 20260904035504 | 80 | 126 | 1.0 | 5.0 | 0.00 | 0.00 | 0.00 | 84 | 1013.8 |
| 20260904035004 | 80 | 113 | 2.0 | 8.0 | 0.00 | 0.00 | 0.00 | 84 | 1013.8 |
| 20260904034504 | 80 | 94 | 2.0 | 8.0 | 0.00 | 0.00 | 0.00 | 84 | 1013.8 |
| 20260904034004 | 80 | 99 | 2.0 | 6.0 | 0.00 | 0.00 | 0.00 | 83 | 1013.8 |
| 20260904033504 | 80 | 101 | 1.0 | 6.0 | 0.00 | 0.00 | 0.00 | 83 | 1013.7 |
| 20260904033004 | 80 | 95 | 1.0 | 7.0 | 0.00 | 0.00 | 0.00 | 83 | 1013.7 |
| 20260904032504 | 80 | 85 | 1.0 | 9.0 | 0.00 | 0.00 | 0.00 | 83 | 1013.6 |
| 20260904032004 | 80 | 86 | 1.0 | 9.0 | 0.00 | 0.00 | 0.00 | 82 | 1013.5 |
| 20260904031004 | 81 | 122 | 2.0 | 7.0 | 0.00 | 0.00 | 0.00 | 81 | 1013.5 |
| 20260904030504 | 81 | 93 | 2.0 | 8.0 | 0.00 | 0.00 | 0.00 | 81 | 1013.5 |
| 20260904025004 | 81 | 116 | 2.0 | 8.0 | 0.00 | 0.00 | 0.00 | 79 | 1013.4 |
| 20260904024504 | 81 | 118 | 2.0 | 7.0 | 0.00 | 0.00 | 0.00 | 79 | 1013.3 |
| 20260904024005 | 81 | 119 | 2.0 | 7.0 | 0.00 | 0.00 | 0.00 | 78 | 1013.3 |
| 20260904023504 | 81 | 111 | 2.0 | 7.0 | 0.00 | 0.00 | 0.00 | 78 | 1013.3 |
| 20260904023004 | 82 | 117 | 3.0 | 13.0 | 0.00 | 0.00 | 0.00 | 77 | 1013.1 |
| 20260904022504 | 82 | 146 | 2.0 | 13.0 | 0.00 | 0.00 | 0.00 | 77 | 1013.1 |
| 20260904022004 | 82 | 143 | 2.0 | 7.0 | 0.00 | 0.00 | 0.00 | 76 | 1012.9 |
| 20260904021004 | 83 | 99 | 2.0 | 8.0 | 0.00 | 0.00 | 0.00 | 74 | 1012.9 |
| 20260904020504 | 83 | 135 | 2.0 | 7.0 | 0.00 | 0.00 | 0.00 | 74 | 1013.0 |
| 20260904020004 | 83 | 143 | 2.0 | 7.0 | 0.00 | 0.00 | 0.00 | 73 | 1012.8 |
| 20260904015504 | 83 | 104 | 2.0 | 7.0 | 0.00 | 0.00 | 0.00 | 73 | 1012.8 |
| 20260904014504 | 83 | 98 | 1.0 | 8.0 | 0.00 | 0.00 | 0.00 | 73 | 1012.7 |
| 20260904013004 | 84 | 102 | 1.0 | 4.0 | 0.00 | 0.00 | 0.00 | 73 | 1012.4 |
| 20260904012504 | 84 | 101 | 1.0 | 4.0 | 0.00 | 0.00 | 0.00 | 73 | 1012.3 |
| 20260904012005 | 84 | 95 | 1.0 | 6.0 | 0.00 | 0.00 | 0.00 | 72 | 1012.3 |
| 20260904011004 | 84 | 101 | 1.0 | 7.0 | 0.00 | 0.00 | 0.00 | 71 | 1012.2 |
| 20260904010503 | 85 | 109 | 1.0 | 5.0 | 0.00 | 0.00 | 0.00 | 71 | 1012.2 |
| 20260904010004 | 85 | 91 | 2.0 | 7.0 | 0.00 | 0.00 | 0.00 | 70 | 1012.2 |
| 20260904005504 | 85 | 144 | 2.0 | 7.0 | 0.00 | 0.00 | 0.00 | 70 | 1012.2 |
| 20260904005004 | 85 | 183 | 2.0 | 7.0 | 0.00 | 0.00 | 0.00 | 69 | 1012.2 |
| 20260904004504 | 86 | 150 | 2.0 | 7.0 | 0.00 | 0.00 | 0.00 | 69 | 1012.2 |
| 20260904004004 | 86 | 98 | 2.0 | 7.0 | 0.00 | 0.00 | 0.00 | 68 | 1012.2 |
| 20260904003004 | 86 | 106 | 3.0 | 8.0 | 0.00 | 0.00 | 0.00 | 68 | 1012.2 |
| 20260904002504 | 87 | 105 | 3.0 | 8.0 | 0.00 | 0.00 | 0.00 | 68 | 1012.2 |
| 20260904001504 | 88 | 97 | 1.0 | 7.0 | 0.00 | 0.00 | 0.00 | 68 | 1012.1 |
| 20260904001004 | 88 | 103 | 2.0 | 7.0 | 0.00 | 0.00 | 0.00 | 68 | 1012.1 |
| 20260904000504 | 88 | 95 | 3.0 | 9.0 | 0.00 | 0.00 | 0.00 | 68 | 1012.0 |
| 20260904000005 | 88 | 113 | 2.0 | 9.0 | 0.00 | 0.00 | 0.00 | 67 | 1012.0 |
| 20260903235504 | 88 | 139 | 2.0 | 10.0 | 0.00 | 0.00 | 0.00 | 67 | 1011.9 |
| 20260903235004 | 88 | 105 | 2.0 | 10.0 | 0.00 | 0.00 | 0.00 | 67 | 1012.0 |
| 20260903234504 | 88 | 96 | 3.0 | 13.0 | 0.00 | 0.00 | 0.00 | 67 | 1012.0 |
| 20260903234004 | 89 | 107 | 3.0 | 13.0 | 0.00 | 0.00 | 0.00 | 67 | 1012.0 |
| 20260903233505 | 89 | 103 | 3.0 | 10.0 | 0.00 | 0.00 | 0.00 | 67 | 1011.9 |
| 20260903232504 | 89 | 100 | 4.0 | 11.0 | 0.00 | 0.02 | 0.00 | 67 | 1011.9 |
| 20260903231504 | 90 | 101 | 4.0 | 11.0 | 0.00 | 0.03 | 0.00 | 66 | 1011.8 |
| 20260903230504 | 90 | 95 | 4.0 | 14.0 | 0.00 | 0.03 | 0.00 | 65 | 1011.8 |
| 20260903230004 | 90 | 103 | 4.0 | 14.0 | 0.00 | 0.03 | 0.00 | 65 | 1011.7 |
| 20260903225504 | 91 | 103 | 4.0 | 13.0 | 0.00 | 0.03 | 0.00 | 66 | 1011.6 |
| 20260903225004 | 92 | 106 | 4.0 | 13.0 | 0.00 | 0.03 | 0.00 | 65 | 1011.6 |
| 20260903224504 | 93 | 107 | 4.0 | 13.0 | 0.00 | 0.03 | 0.00 | 65 | 1011.4 |
| 20260903224004 | 94 | 98 | 4.0 | 10.0 | 0.00 | 0.03 | 0.00 | 63 | 1011.3 |
| 20260903223504 | 94 | 98 | 5.0 | 10.0 | 0.00 | 0.03 | 0.00 | 61 | 1011.2 |
| 20260903222004 | 94 | 91 | 4.0 | 13.0 | 0.00 | 0.03 | 0.00 | 60 | 1011.1 |
| 20260903221504 | 94 | 93 | 4.0 | 13.0 | 0.00 | 0.03 | 0.00 | 57 | 1011.2 |
| 20260903221004 | 95 | 95 | 3.0 | 7.0 | 0.00 | 0.03 | 0.00 | 55 | 1011.1 |
| 20260903220004 | 95 | 106 | 3.0 | 9.0 | 0.00 | 0.03 | 0.00 | 55 | 1011.2 |
| 20260903215504 | 96 | 91 | 4.0 | 10.0 | 0.00 | 0.03 | 0.00 | 54 | 1011.2 |
| 20260903215004 | 96 | 91 | 4.0 | 10.0 | 0.00 | 0.03 | 0.00 | 54 | 1011.2 |
| 20260903214004 | 96 | 103 | 4.0 | 10.0 | 0.00 | 0.03 | 0.00 | 54 | 1011.2 |
| 20260903213504 | 96 | 102 | 3.0 | 10.0 | 0.00 | 0.03 | 0.00 | 54 | 1011.3 |
| 20260903213004 | 96 | 108 | 3.0 | 9.0 | 0.00 | 0.03 | 0.00 | 52 | 1011.4 |
| 20260903212504 | 96 | 94 | 3.0 | 9.0 | 0.00 | 0.03 | 0.00 | 53 | 1011.4 |
| 20260903212004 | 97 | 90 | 3.0 | 8.0 | 0.00 | 0.03 | 0.00 | 52 | 1011.4 |
| 20260903211004 | 97 | 111 | 3.0 | 8.0 | 0.00 | 0.03 | 0.00 | 52 | 1011.4 |
| 20260903210504 | 98 | 96 | 3.0 | 9.0 | 0.00 | 0.03 | 0.00 | 51 | 1011.5 |
| 20260903210004 | 98 | 96 | 2.0 | 9.0 | 0.00 | 0.03 | 0.00 | 51 | 1011.6 |
| 20260903205004 | 98 | 101 | 2.0 | 9.0 | 0.00 | 0.03 | 0.00 | 49 | 1011.7 |
| 20260903204504 | 99 | 90 | 2.0 | 7.0 | 0.00 | 0.03 | 0.00 | 48 | 1011.7 |
| 20260903203504 | 98 | 106 | 2.0 | 7.0 | 0.00 | 0.03 | 0.00 | 50 | 1011.8 |
| 20260903203005 | 98 | 166 | 2.0 | 8.0 | 0.00 | 0.03 | 0.00 | 49 | 1011.9 |
| 20260903202504 | 98 | 149 | 2.0 | 8.0 | 0.00 | 0.03 | 0.00 | 49 | 1012.0 |
| 20260903202004 | 99 | 97 | 2.0 | 8.0 | 0.00 | 0.03 | 0.00 | 49 | 1012.2 |
| 20260903201504 | 99 | 89 | 3.0 | 8.0 | 0.00 | 0.03 | 0.00 | 49 | 1012.2 |
| 20260903201004 | 99 | 96 | 2.0 | 8.0 | 0.00 | 0.03 | 0.00 | 49 | 1012.2 |
| 20260903200504 | 98 | 95 | 2.0 | 7.0 | 0.00 | 0.03 | 0.00 | 50 | 1012.2 |
| 20260903200004 | 98 | 86 | 2.0 | 7.0 | 0.00 | 0.03 | 0.00 | 51 | 1012.2 |
| 20260903195504 | 97 | 76 | 2.0 | 7.0 | 0.00 | 0.03 | 0.00 | 51 | 1012.3 |
| 20260903195004 | 97 | 72 | 1.0 | 5.0 | 0.00 | 0.03 | 0.00 | 53 | 1012.4 |
| 20260903194504 | 96 | 90 | 1.0 | 5.0 | 0.00 | 0.03 | 0.00 | 53 | 1012.4 |
| 20260903194004 | 96 | 115 | 1.0 | 5.0 | 0.00 | 0.03 | 0.00 | 53 | 1012.5 |
| 20260903193504 | 96 | 141 | 1.0 | 5.0 | 0.00 | 0.03 | 0.00 | 52 | 1012.5 |
| 20260903192504 | 95 | 168 | 1.0 | 3.0 | 0.00 | 0.03 | 0.00 | 54 | 1012.6 |
| 20260903192003 | 95 | 168 | 1.0 | 3.0 | 0.00 | 0.03 | 0.00 | 55 | 1012.8 |
| 20260903191504 | 95 | 168 | 1.0 | 3.0 | 0.00 | 0.03 | 0.00 | 54 | 1012.8 |
| 20260903191004 | 94 | 167 | 1.0 | 3.0 | 0.00 | 0.03 | 0.00 | 54 | 1013.0 |
| 20260903190504 | 94 | 161 | 1.0 | 4.0 | 0.00 | 0.03 | 0.00 | 53 | 1013.0 |
| 20260903190004 | 95 | 108 | 1.0 | 4.0 | 0.00 | 0.03 | 0.00 | 54 | 1013.2 |
| 20260903185504 | 95 | 81 | 1.0 | 6.0 | 0.00 | 0.03 | 0.00 | 55 | 1013.3 |
| 20260903185004 | 94 | 126 | 2.0 | 6.0 | 0.00 | 0.03 | 0.00 | 55 | 1013.3 |
| 20260903184504 | 94 | 158 | 2.0 | 4.0 | 0.00 | 0.03 | 0.00 | 57 | 1013.4 |
| 20260903184005 | 94 | 151 | 1.0 | 4.0 | 0.00 | 0.03 | 0.00 | 57 | 1013.5 |
| 20260903183504 | 94 | 149 | 1.0 | 3.0 | 0.00 | 0.03 | 0.00 | 56 | 1013.6 |
| 20260903183004 | 94 | 149 | 1.0 | 4.0 | 0.00 | 0.03 | 0.00 | 58 | 1013.6 |
| 20260903182504 | 93 | 145 | 1.0 | 4.0 | 0.00 | 0.03 | 0.00 | 56 | 1013.7 |
| 20260903182004 | 93 | 126 | 1.0 | 4.0 | 0.00 | 0.03 | 0.00 | 58 | 1013.8 |